Tracking 25709 objects as of 24-May-2022
HD Live streaming from Space Station
objects crossing your sky now

STARLINK-3124

Track STARLINK-3124 now!
10-day predictions
STARLINK-3124 is classified as:


NORAD ID: 49456
Int'l Code: 2021-104BA
Perigee: 545.2 km
Apogee: 548.5 km
Inclination: 53.2 °
Period: 95.4 minutes
Semi major axis: 6917 km
RCS: Unknown
Launch date: November 13, 2021
Source: United States (US)
Launch site: AIR FORCE EASTERN TEST RANGE (AFETR)
aabbcc
Your satellite tracking list
Your tracking list is empty




NASA's NSSDC Master Catalog

Two Line Element Set (TLE):
1 49456U 21104BA  22143.58334491 -.00008040  00000-0 -48750-3 0  9996
2 49456  53.2191 321.5919 0002403  27.0014 268.8209 15.08845548 30594
Source of the keplerian elements: AFSPC